Location: Hylvaty SDH
(49.9612°N, 16.4057°E)
Time: 11:53:35
(UTC+01:00)

Tiros 1 - Pass Details

Date: 06 October 2020
Orbit: 630 x 663 km, 48.4° (Epoch: 28 October)

Event Time Altitude Azimuth Distance (km) Brightness Sun altitude
Rises 11:56:48 0° 202° (SSW) 2,917 11.2 33.8°
Reaches altitude 10° 11:59:43 10° 183° (S) 2,019 11.0 33.9°
Maximum altitude 12:02:50 18° 141° (SE) 1,568 10.4 34.0°
Drops below altitude 10° 12:05:59 10° 98° (E) 2,040 10.0 34.1°
Sets 12:08:57 0° 80° (E) 2,961 10.6 34.2°
